TimeCDT,TemperatureF,Dew PointF,Humidity,Sea Level PressureIn,VisibilityMPH,Wind Direction,Wind SpeedMPH,Gust SpeedMPH,PrecipitationIn,Events,Conditions,WindDirDegrees,DateUTC
12:35 AM,59.7,27.5,29,30.07,10.0,West,8.1,-,N/A,,Clear,280,2012-10-14 05:35:00
12:55 AM,59.0,27.9,31,30.07,10.0,WNW,9.2,-,N/A,,Clear,290,2012-10-14 05:55:00
1:15 AM,58.3,28.4,32,30.08,10.0,West,6.9,-,N/A,,Clear,270,2012-10-14 06:15:00
1:35 AM,56.1,29.1,36,30.08,10.0,WSW,8.1,-,N/A,,Clear,250,2012-10-14 06:35:00
1:55 AM,55.6,29.3,37,30.09,10.0,WSW,9.2,-,N/A,,Clear,250,2012-10-14 06:55:00
2:15 AM,56.5,28.9,35,30.09,10.0,WSW,5.8,-,N/A,,Clear,250,2012-10-14 07:15:00
2:35 AM,55.0,29.3,37,30.10,10.0,WSW,5.8,-,N/A,,Clear,240,2012-10-14 07:35:00
2:55 AM,52.0,31.8,46,30.11,10.0,Calm,Calm,-,N/A,,Clear,0,2012-10-14 07:55:00
3:15 AM,51.8,32.0,47,30.10,10.0,SW,4.6,-,N/A,,Clear,220,2012-10-14 08:15:00
3:35 AM,52.0,32.0,47,30.10,10.0,WSW,8.1,-,N/A,,Clear,250,2012-10-14 08:35:00
3:55 AM,52.0,32.0,47,30.10,10.0,West,6.9,-,N/A,,Clear,260,2012-10-14 08:55:00
4:15 AM,52.9,32.0,45,30.11,10.0,WNW,6.9,-,N/A,,Clear,290,2012-10-14 09:15:00
4:35 AM,52.7,32.0,45,30.12,10.0,NNW,8.1,-,N/A,,Clear,330,2012-10-14 09:35:00
4:55 AM,51.1,32.0,48,30.12,10.0,West,6.9,-,N/A,,Clear,280,2012-10-14 09:55:00
5:15 AM,50.0,32.4,51,30.12,10.0,West,6.9,-,N/A,,Clear,270,2012-10-14 10:15:00
5:35 AM,49.3,32.9,53,30.13,10.0,WNW,6.9,-,N/A,,Clear,290,2012-10-14 10:35:00
6:15 AM,48.4,33.8,57,30.15,10.0,WNW,5.8,-,N/A,,Clear,290,2012-10-14 11:15:00
6:35 AM,48.2,34.0,58,30.16,10.0,Calm,Calm,-,N/A,,Clear,0,2012-10-14 11:35:00
6:55 AM,49.6,34.5,56,30.16,10.0,NW,3.5,-,N/A,,Clear,320,2012-10-14 11:55:00
7:15 AM,51.3,33.8,51,30.17,10.0,East,4.6,-,N/A,,Clear,80,2012-10-14 12:15:00
7:35 AM,45.9,34.2,64,30.19,10.0,Calm,Calm,-,N/A,,Clear,0,2012-10-14 12:35:00
7:55 AM,46.9,35.1,63,30.19,10.0,Calm,Calm,-,N/A,,Clear,0,2012-10-14 12:55:00
8:15 AM,46.6,35.6,66,30.20,10.0,WNW,3.5,-,N/A,,Clear,300,2012-10-14 13:15:00
8:35 AM,50.4,38.1,63,30.22,10.0,Calm,Calm,-,N/A,,Clear,0,2012-10-14 13:35:00
8:55 AM,53.6,38.3,56,30.24,10.0,Calm,Calm,-,N/A,,Clear,0,2012-10-14 13:55:00
9:15 AM,58.3,38.3,47,30.25,10.0,WNW,4.6,-,N/A,,Clear,300,2012-10-14 14:15:00
9:35 AM,60.8,38.1,43,30.26,10.0,WNW,6.9,-,N/A,,Clear,300,2012-10-14 14:35:00
9:55 AM,62.6,37.8,40,30.27,10.0,NW,6.9,-,N/A,,Clear,320,2012-10-14 14:55:00
10:35 AM,65.5,37.0,35,30.27,10.0,Calm,Calm,-,N/A,,Clear,0,2012-10-14 15:35:00
10:55 AM,66.9,37.0,33,30.27,10.0,North,3.5,-,N/A,,Clear,10,2012-10-14 15:55:00
11:15 AM,68.0,37.2,32,30.27,10.0,Calm,Calm,-,N/A,,Clear,0,2012-10-14 16:15:00
11:35 AM,68.5,37.0,31,30.27,10.0,Calm,Calm,-,N/A,,Clear,0,2012-10-14 16:35:00
11:55 AM,69.4,37.4,31,30.26,10.0,NNE,4.6,-,N/A,,Clear,20,2012-10-14 16:55:00
12:15 PM,71.8,37.4,29,30.26,10.0,ENE,4.6,-,N/A,,Clear,60,2012-10-14 17:15:00
12:35 PM,72.3,37.2,28,30.26,10.0,NE,6.9,-,N/A,,Clear,50,2012-10-14 17:35:00
12:55 PM,74.1,37.4,26,30.26,10.0,Calm,Calm,-,N/A,,Clear,0,2012-10-14 17:55:00
1:15 PM,75.2,36.7,25,30.25,10.0,ENE,5.8,-,N/A,,Clear,70,2012-10-14 18:15:00
1:35 PM,74.5,36.7,25,30.24,10.0,Calm,Calm,-,N/A,,Clear,0,2012-10-14 18:35:00
1:55 PM,75.4,36.5,24,30.23,10.0,East,3.5,-,N/A,,Clear,90,2012-10-14 18:55:00
2:15 PM,75.6,36.7,24,30.22,10.0,NE,8.1,-,N/A,,Clear,50,2012-10-14 19:15:00
2:35 PM,77.2,37.4,24,30.20,10.0,ESE,8.1,-,N/A,,Clear,120,2012-10-14 19:35:00
2:55 PM,77.9,36.7,23,30.20,10.0,ESE,4.6,-,N/A,,Clear,110,2012-10-14 19:55:00
3:15 PM,78.1,36.7,22,30.19,10.0,ESE,3.5,-,N/A,,Clear,120,2012-10-14 20:15:00
3:35 PM,77.9,37.0,23,30.19,10.0,SE,5.8,-,N/A,,Clear,140,2012-10-14 20:35:00
3:55 PM,78.6,36.7,22,30.18,10.0,NNE,4.6,-,N/A,,Clear,30,2012-10-14 20:55:00
4:15 PM,78.8,37.6,23,30.17,10.0,SSE,5.8,-,N/A,,Clear,150,2012-10-14 21:15:00
4:35 PM,78.3,37.0,23,30.16,10.0,ENE,4.6,-,N/A,,Clear,60,2012-10-14 21:35:00
4:55 PM,78.6,37.8,23,30.16,10.0,SE,4.6,-,N/A,,Clear,130,2012-10-14 21:55:00
5:15 PM,78.8,37.2,22,30.16,10.0,SE,5.8,-,N/A,,Clear,140,2012-10-14 22:15:00
5:35 PM,78.8,36.9,22,30.15,10.0,East,4.6,-,N/A,,Clear,100,2012-10-14 22:35:00
5:55 PM,78.4,37.4,23,30.15,10.0,SE,5.8,-,N/A,,Clear,130,2012-10-14 22:55:00
6:15 PM,77.9,36.1,22,30.15,10.0,ESE,5.8,-,N/A,,Clear,110,2012-10-14 23:15:00
6:35 PM,77.4,36.5,23,30.15,10.0,East,4.6,-,N/A,,Clear,80,2012-10-14 23:35:00
6:55 PM,75.7,37.6,25,30.15,10.0,East,4.6,-,N/A,,Clear,80,2012-10-14 23:55:00
7:15 PM,72.5,38.3,29,30.15,10.0,East,3.5,-,N/A,,Clear,100,2012-10-15 00:15:00
7:35 PM,70.9,39.0,31,30.14,10.0,ESE,3.5,-,N/A,,Clear,110,2012-10-15 00:35:00
7:55 PM,69.1,38.3,32,30.15,10.0,ESE,3.5,-,N/A,,Clear,110,2012-10-15 00:55:00
8:15 PM,68.4,37.4,32,30.15,10.0,ESE,3.5,-,N/A,,Clear,120,2012-10-15 01:15:00
8:35 PM,67.3,37.6,34,30.16,10.0,ESE,3.5,-,N/A,,Clear,110,2012-10-15 01:35:00
8:55 PM,66.9,37.6,34,30.16,10.0,East,4.6,-,N/A,,Clear,100,2012-10-15 01:55:00
9:15 PM,64.8,38.5,38,30.17,10.0,Calm,Calm,-,N/A,,Clear,0,2012-10-15 02:15:00
9:35 PM,62.4,39.0,42,30.18,10.0,Calm,Calm,-,N/A,,Clear,0,2012-10-15 02:35:00
9:55 PM,62.2,39.2,43,30.18,10.0,Calm,Calm,-,N/A,,Clear,0,2012-10-15 02:55:00
10:15 PM,62.2,39.2,43,30.19,10.0,Calm,Calm,-,N/A,,Clear,0,2012-10-15 03:15:00
10:35 PM,61.3,39.2,44,30.19,10.0,East,3.5,-,N/A,,Clear,100,2012-10-15 03:35:00
10:55 PM,60.6,40.1,47,30.19,10.0,East,5.8,-,N/A,,Clear,80,2012-10-15 03:55:00
11:15 PM,58.6,41.2,52,30.20,10.0,ENE,3.5,-,N/A,,Clear,70,2012-10-15 04:15:00
11:35 PM,58.3,41.4,53,30.20,10.0,Calm,Calm,-,N/A,,Clear,0,2012-10-15 04:35:00